Theta_e
288 287 287 286 285 284 283 283 284 282 282 282 282 281 281 281 282 282 282 281 282 282
286 286 284 284 283 283 282 281 281 281 280 280 280 280 280 280 280 280 281 281 281 281
285 284 284 283 281 281 281 281 280 279 279 279 278 278 278 278 279 278 279 279 279 279
283 282 282 280 280 280 280 279 278 278 277 277 277 277 276 276 276 276 276 276 277 276
282 280 279 279 279 279 278 278 277 276 276 275 275 275 275 274 274 273 273 273 274 273
280 278 278 278 278 277 276 276 276 275 274 274 274 273 273 273 272 272 272 273 273 273
278 277 278 277 276 276 275 274 274 274 273 273 272 272 272 272 272 272 273 274 274 274
278 277 277 275 275 274 274 273 273 272 272 272 272 272 272 272 272 273 273 274 274 274
276 275 275 274 273 272 272 272 271 271 271 271 271 274 274 274 273 273 272 272 273 274
274 273 273 272 271 270 270 271 270 270 271 270 271 273 275 275 273 273 273 273 273 273
273 271 271 270 269 269 269 269 270 270 269 269 270 273 274 274 273 273 273 273 273 273
271 270 269 268 268 269 269 269 269 269 269 268 267 271 273 274 273 273 273 274 274 274
270 269 268 268 268 269 268 268 268 268 268 268 267 271 274 275 273 272 273 274 275 275
268 267 267 267 267 266 266 267 266 266 269 270 271 271 274 275 274 273 273 272 271 272
Wind_Speed
13 8 8 8 6 5 6 6 6 6 7 9 10 10 10 9 9 11 9 13 11 10
13 12 10 10 8 7 7 6 6 7 9 10 11 11 12 8 11 11 11 11 12 11
13 12 10 10 10 9 7 6 7 8 10 10 10 11 11 10 11 12 10 9 13 13
13 13 11 9 9 8 7 7 8 9 9 10 10 10 11 12 13 14 14 14 14 16
13 13 12 11 10 9 9 8 8 7 9 10 10 10 11 12 12 13 15 15 16 17
15 14 13 12 11 9 8 7 7 8 10 10 9 10 10 12 13 14 14 15 16 17
15 14 11 10 9 8 6 6 7 8 9 9 9 10 11 12 13 14 15 16 16 17
14 12 11 10 9 7 6 6 7 8 9 9 8 8 10 12 14 15 16 16 17 18
14 13 12 10 9 7 7 6 6 8 9 9 7 13 16 17 13 16 17 17 17 18
13 11 9 9 9 8 8 7 8 8 7 8 10 15 16 20 13 15 16 18 19 18
12 11 11 10 9 8 7 7 7 6 6 8 9 15 17 20 14 15 18 19 19 21
10 11 11 9 8 7 5 5 5 5 6 7 9 15 17 18 13 16 19 18 19 20
12 10 9 9 8 5 4 6 5 5 6 8 9 13 18 18 11 16 15 19 18 23
13 12 11 9 7 6 5 4 4 5 6 8 6 8 18 21 13 13 15 15 15 14
Wind_Direction
195 196 199 204 207 219 234 250 269 283 287 280 284 284 281 278 280 283 280 280 275 275
191 192 192 193 199 214 229 242 258 268 276 280 281 284 286 284 287 288 287 279 276 274
185 187 190 186 199 209 221 236 253 262 265 272 278 283 284 283 280 281 277 276 276 273
182 181 186 190 197 207 216 228 242 254 270 274 277 279 279 276 280 281 283 281 280 279
175 174 185 192 192 196 213 225 243 255 263 268 270 274 277 284 286 285 283 281 280 279
179 178 185 189 190 196 211 222 237 247 255 263 272 276 280 280 281 279 278 278 277 278
181 178 180 178 185 197 207 225 241 247 258 268 275 279 282 285 284 284 282 281 279 279
177 171 168 170 178 177 197 226 238 255 264 268 269 273 282 287 288 287 287 285 284 280
167 165 171 168 165 173 202 221 238 247 253 267 273 280 287 287 288 295 294 290 286 284
161 161 163 158 163 179 200 215 234 245 256 273 281 282 290 302 299 293 288 287 287 286
159 157 158 166 177 187 199 214 235 252 273 274 282 290 305 310 300 293 289 285 285 284
158 157 158 171 180 187 199 231 244 254 267 278 282 295 314 313 303 293 293 291 289 288
153 155 164 169 171 174 206 236 251 268 279 273 274 300 320 317 304 301 303 300 303 305
153 155 159 162 161 171 205 234 252 267 275 265 289 315 317 317 315 310 310 315 312 309